[[{"header":{"parameterUnit":"m.s-1","parameterCategory":1,"la1":30.2991,"la2":30.254,"lo1":-89.0895,"lo2":-89.0444,"dy":0.0017,"dx":0.0017,"nx":28,"ny":28,"refTime":"2025-06-05T09:00:00:Z","depth":0,"parameterNumber":2,"parameterNumberName":"U-component_of_WINDS"},"data":[0,0,0,0,0,0,0,0,0,0,0,0,0,0,0,0,0,0,0,0,0,0,0,0,0,0,0,0,0,0,0,0,0,0,0,0,0,0,0,0,0,0,0,0,0,0,0,0,0,0,0,0,0,0,0,0,0,0,4.0553,4.0555,0,4.0672,4.0673,4.0675,4.0623,4.062,4.0617,4.0615,4.0736,4.0741,4.0747,0,0,0,0,0,0,0,0,0,0,0,0,0,4.0279,4.0284,4.0553,4.0555,4.0556,4.0672,4.0674,4.0675,4.0624,4.062,4.0617,4.0613,4.0734,4.0741,4.0748,0,0,0,0,0,0,0,0,0,0,0,0,0,4.0398,4.0286,4.0553,4.0544,4.0545,4.0672,4.0674,4.0676,4.0624,4.062,4.0616,4.0612,4.0731,4.074,4.0749,4.0891,0,0,4.0776,4.078,0,0,0,0,0,0,0,0,4.0391,4.0408,4.0544,4.0545,4.0546,4.0628,4.0621,4.0748,4.0625,4.0594,4.0614,4.0609,4.0703,4.0714,4.0746,4.0896,4.0902,4.0777,4.0782,4.0786,4.0788,0,0,0,0,0,0,0,4.0383,4.0403,4.06,4.0546,4.0547,4.0534,4.0546,4.0645,4.0672,4.0596,4.0593,4.0608,4.0703,4.0738,4.0749,4.0903,4.0776,4.0784,4.079,4.0793,4.1171,4.1176,0,0,0,0,0,0,4.0375,4.0396,4.0596,4.0604,4.0456,4.0542,4.0556,4.0606,4.067,4.0676,4.0611,4.0605,4.0725,4.0738,4.0753,4.0919,4.0786,4.0794,4.0799,4.1167,4.1173,4.1178,0,0,0,0,0,0,4.0369,4.0393,4.0592,4.0499,4.0523,4.0552,4.0609,4.0611,4.0645,4.0682,4.0686,4.0642,4.0722,4.074,4.0856,4.0923,4.0798,4.0806,4.1161,4.1169,4.1175,4.1257,0,0,0,0,0,0,4.0362,4.0392,4.0447,4.0501,4.0528,4.0694,4.0613,4.0616,4.0661,4.0654,4.0712,4.0717,4.072,4.0843,4.0865,4.0933,4.0813,4.1155,4.1165,4.1173,4.1248,4.1266,4.1281,0,0,0,0,0,4.0352,4.0466,4.045,4.0474,4.0598,4.0698,4.0714,4.0715,4.0667,4.0721,4.0744,4.0715,4.0913,4.0855,4.0879,4.0951,4.1151,4.1162,4.1172,4.1241,4.1262,4.128,0,0,0,0,0,0,4.0419,4.0473,4.0456,4.059,4.064,4.0689,4.0758,4.0738,4.0802,4.0792,4.0791,4.0804,4.0923,4.0949,4.0884,4.109,4.1024,4.104,4.1068,4.1089,4.1105,4.1095,4.0821,0,0,0,0,0,4.045,4.0527,4.057,4.0684,4.071,4.073,4.0774,4.077,4.0821,4.0842,4.0873,4.0924,4.0996,4.1045,4.1114,4.1252,4.1262,4.1314,4.133,4.1343,4.1356,4.1427,4.1449,4.1212,4.1212,4.1212,0,0,4.0514,4.0552,4.0601,4.0699,4.0737,4.0815,4.0748,4.0835,4.0892,4.0855,4.0965,4.099,4.1046,4.1172,4.1229,4.1197,4.1424,4.1357,4.1367,4.1373,4.144,4.1462,4.1482,4.122,4.1218,4.1217,0,0,4.0669,4.0708,4.0805,4.0844,4.0902,4.0915,4.0938,4.099,4.1005,4.1115,4.1088,4.1156,4.1283,4.1323,4.136,4.1528,4.1502,4.1551,4.1635,4.1704,4.1722,4.1739,4.1795,4.1816,4.1564,4.1564,4.1564,0,4.0741,4.0859,4.0858,4.0946,4.0988,4.0958,4.1055,4.1093,4.1171,4.12,4.1164,4.132,4.1356,4.1489,4.153,4.1562,4.1586,4.1543,4.172,4.1736,4.1752,4.1805,4.1827,4.1569,4.1569,4.1568,4.1568,0,4.0942,4.1024,4.1096,4.117,4.1221,4.1314,4.1326,4.1377,4.1369,4.1384,4.1495,4.1537,4.1613,4.1645,4.1638,4.1776,4.1754,4.172,4.1653,4.1779,4.1829,4.185,4.1577,4.1575,4.1573,4.1572,0,0,4.1142,4.1214,4.124,4.1272,4.1333,4.1396,4.1486,4.156,4.1602,4.1657,4.173,4.1837,4.1804,4.1846,4.1844,4.1905,4.203,4.1862,4.1863,4.1888,4.218,4.2203,4.2227,4.2015,4.2019,4.2022,4.2174,0,4.1299,4.1457,4.1458,4.1603,4.1676,4.1648,4.1726,4.1771,4.1788,4.1852,4.187,4.1944,4.1897,4.1922,4.1981,4.2002,4.2088,4.1992,4.208,4.2083,4.2063,4.2254,4.228,4.2421,4.2194,4.2197,4.22,0,4.1503,4.1563,4.1714,4.1761,4.1792,4.1863,4.1928,4.1991,4.204,4.2048,4.2094,4.2081,4.2171,4.2104,4.2226,4.216,4.2196,4.2212,4.2218,4.2223,4.2147,4.2261,4.2467,4.2486,4.2231,4.2229,4.2227,0,4.1629,4.1748,4.1853,4.1881,4.194,4.1989,4.2016,4.2061,4.2104,4.2162,4.2189,4.2257,4.2293,4.2345,4.235,4.2302,4.2472,4.2406,4.2478,4.2478,4.2512,4.251,4.2723,4.2543,4.2542,4.2542,4.2541,0,4.1802,4.1895,4.1909,4.1974,4.2076,4.2076,4.2177,4.22,4.224,4.2306,4.2287,4.235,4.2355,4.2419,4.2424,4.2522,4.2539,4.2546,4.2545,4.2546,4.2544,4.2567,4.2556,4.2547,4.2546,4.2545,4.2544,0,4.1959,4.1973,4.2084,4.213,4.2144,4.2217,4.2255,4.2315,4.233,4.2414,4.2434,4.2457,4.2531,4.2542,4.263,4.2633,4.2749,4.274,4.2732,4.2729,4.2799,4.279,4.3031,4.3061,4.2865,4.2867,4.2868,0,4.2067,4.2137,4.219,4.2233,4.2261,4.2332,4.2375,4.2378,4.2423,4.2483,4.2536,4.2608,4.2665,4.2785,4.2808,4.2874,4.2864,4.2945,4.2874,4.2871,4.2861,4.2855,4.286,4.2957,4.2959,4.2961,4.2962,0,4.2255,4.2258,4.2321,4.2386,4.2437,4.2489,4.2537,4.2574,4.2582,4.2634,4.271,4.2754,4.2842,4.2913,4.2978,4.3004,4.2984,4.2985,4.3004,4.3003,4.2993,4.2995,4.2764,4.2978,4.2977,4.2975,4.2975,4.2974,4.2388,4.2447,4.2493,4.2563,4.2599,4.2644,4.2702,4.2723,4.2786,4.2857,4.2855,4.2937,4.2982,4.3067,4.3097,4.316,4.3134,4.3163,4.317,4.3176,4.318,4.2986,4.3172,4.3172,4.3172,4.3171,4.3171,0,4.2571,4.2598,4.2663,4.273,4.2785,4.2762,4.2814,4.286,4.2932,4.2976,4.3033,4.3117,4.3185,4.3213,4.3279,4.3324,4.3316,4.3341,4.3336,4.3341,4.3202,4.3177,4.3346,4.3346,4.3346,4.3346,4.3346,4.3346,4.2673,4.2771,4.2779,4.2894,4.2921,4.3,4.3031,4.3071,4.3106,4.3201,4.3257,4.3275,4.3312,4.338,4.344,4.3447,4.347,4.3498,4.35,4.3369,4.3351,4.3334,4.331,4.3504,4.3505,4.3633,4.3634,4.3635]},{"header":{"parameterUnit":"m.s-1","parameterCategory":1,"la1":30.2991,"la2":30.254,"lo1":-89.0895,"lo2":-89.0444,"dy":0.0017,"dx":0.0017,"nx":28,"ny":28,"refTime":"2025-06-05T09:00:00:Z","depth":0,"parameterNumber":3,"parameterNumberName":"V-component_of_WINDS"},"data":[0,0,0,0,0,0,0,0,0,0,0,0,0,0,0,0,0,0,0,0,0,0,0,0,0,0,0,0,0,0,0,0,0,0,0,0,0,0,0,0,0,0,0,0,0,0,0,0,0,0,0,0,0,0,0,0,0,0,2.0049,2.0049,0,2.007,2.007,2.007,2.0031,2.0029,2.0028,2.0027,2.0049,2.005,2.0052,0,0,0,0,0,0,0,0,0,0,0,0,0,1.9973,1.9974,2.0049,2.0049,2.0049,2.007,2.007,2.007,2.0031,2.0029,2.0028,2.0026,2.0048,2.005,2.0052,0,0,0,0,0,0,0,0,0,0,0,0,0,2.0001,1.9975,2.0048,2.0032,2.0031,2.007,2.007,2.007,2.0031,2.0029,2.0027,2.0025,2.0047,2.005,2.0053,2.0109,0,0,2.0061,2.0062,0,0,0,0,0,0,0,0,1.9999,2.0004,2.0034,2.0033,2.0032,2.0046,2.0051,2.0083,2.0032,2.0031,2.0027,2.0024,2.0049,2.0052,2.006,2.011,2.0111,2.0061,2.0063,2.0064,2.0065,0,0,0,0,0,0,0,1.9997,2.0003,2.0057,2.0035,2.0033,2.0023,2.0025,2.0057,2.0051,2.0031,2.0028,2.0031,2.0048,2.0058,2.006,2.0111,2.0061,2.0064,2.0065,2.0066,2.0207,2.0209,0,0,0,0,0,0,1.9998,2.0001,2.0056,2.0058,2.001,2.0026,2.0028,2.0043,2.0051,2.005,2.0033,2.0029,2.0054,2.0057,2.0061,2.0126,2.0064,2.0067,2.0068,2.0205,2.0207,2.0209,0,0,0,0,0,0,1.9996,2.0003,2.0055,2.0029,2.0035,2.0029,2.0047,2.0045,2.0054,2.0052,2.0051,2.0044,2.0052,2.0057,2.0097,2.0126,2.0068,2.007,2.0202,2.0205,2.0208,2.0258,0,0,0,0,0,0,1.9994,2.0003,2.0024,2.0029,2.0036,2.0092,2.0048,2.0046,2.0059,2.0054,2.0062,2.0061,2.0051,2.0093,2.01,2.0129,2.0072,2.0199,2.0204,2.0207,2.0254,2.0262,2.027,0,0,0,0,0,1.9992,2.0038,2.0026,2.0033,2.0063,2.0093,2.0097,2.0085,2.0061,2.0083,2.0081,2.0061,2.0122,2.0098,2.0105,2.0135,2.0198,2.0202,2.0207,2.025,2.0261,2.027,0,0,0,0,0,0,2.0037,2.0038,2.0025,2.0074,2.0084,2.0087,2.0114,2.0097,2.0114,2.0109,2.0093,2.0095,2.0138,2.0141,2.0113,2.0189,2.0156,2.0162,2.0186,2.0196,2.0204,2.0203,2.0075,0,0,0,0,0,2.0053,2.0078,2.0077,2.0121,2.0126,2.0119,2.0132,2.0122,2.0131,2.0135,2.0136,2.0146,2.0167,2.0182,2.0202,2.0254,2.0254,2.0278,2.0286,2.0293,2.0299,2.0325,2.0335,2.0225,2.0225,2.0225,0,0,2.0086,2.009,2.0106,2.013,2.0136,2.0162,2.0123,2.0152,2.017,2.0139,2.0177,2.0178,2.0188,2.0234,2.0254,2.0237,2.0329,2.0299,2.0304,2.0306,2.0331,2.0341,2.0351,2.0228,2.0228,2.0227,0,0,2.0159,2.0165,2.0201,2.0208,2.0217,2.0212,2.022,2.0225,2.0225,2.0262,2.0239,2.026,2.0298,2.0305,2.0314,2.0388,2.0369,2.0394,2.0437,2.0463,2.0471,2.0479,2.0504,2.0514,2.04,2.04,2.04,0,2.0199,2.0236,2.0222,2.0252,2.0262,2.0235,2.0271,2.0278,2.0294,2.0301,2.0282,2.0327,2.0332,2.0379,2.0396,2.0405,2.0413,2.0394,2.0471,2.0479,2.0486,2.051,2.0519,2.0403,2.0403,2.0402,2.0402,0,2.0284,2.031,2.0338,2.0353,2.0367,2.04,2.039,2.0405,2.0393,2.039,2.0427,2.0432,2.0451,2.0461,2.045,2.0506,2.0495,2.0474,2.044,2.0499,2.0522,2.0531,2.0407,2.0406,2.0405,2.0405,0,0,2.0387,2.0393,2.0403,2.0409,2.0417,2.0437,2.0468,2.0486,2.0499,2.0511,2.0536,2.0567,2.0547,2.0557,2.0546,2.0569,2.0626,2.0545,2.0545,2.0559,2.0686,2.0701,2.0712,2.0613,2.0615,2.0616,2.0685,0,2.0459,2.0512,2.0499,2.0552,2.0575,2.0548,2.0575,2.0583,2.058,2.0599,2.0595,2.0617,2.059,2.0595,2.0617,2.0614,2.0651,2.0609,2.0636,2.0637,2.0634,2.0724,2.0741,2.0806,2.0693,2.0695,2.0696,0,2.055,2.0564,2.0619,2.0621,2.063,2.0655,2.067,2.0688,2.0696,2.0692,2.0702,2.0686,2.0716,2.0682,2.0722,2.0694,2.0704,2.0704,2.0706,2.0708,2.067,2.0728,2.0826,2.0835,2.071,2.0709,2.0708,0,2.0619,2.0651,2.0688,2.0694,2.0698,2.0715,2.0718,2.0723,2.0734,2.0747,2.0754,2.0771,2.078,2.0793,2.0781,2.0758,2.0823,2.0788,2.082,2.0821,2.0835,2.0835,2.0936,2.0843,2.0843,2.0842,2.0842,0,2.07,2.0734,2.0718,2.0741,2.0778,2.0762,2.08,2.0799,2.0804,2.0825,2.0803,2.0824,2.0808,2.0827,2.0818,2.0852,2.0857,2.0854,2.0851,2.0856,2.0856,2.0862,2.0857,2.0845,2.0844,2.0844,2.0843,0,2.0783,2.0774,2.0812,2.0812,2.0813,2.084,2.084,2.086,2.0855,2.0883,2.0888,2.088,2.0901,2.0891,2.0913,2.0907,2.0951,2.0943,2.0949,2.0946,2.0979,2.0976,2.1087,2.1101,2.0999,2.1,2.1001,0,2.0835,2.0861,2.0863,2.0876,2.0879,2.09,2.0911,2.0896,2.0909,2.0918,2.0937,2.0956,2.097,2.1005,2.1001,2.1018,2.1009,2.1047,2.1011,2.1015,2.1009,2.1007,2.1009,2.1054,2.1055,2.1056,2.1057,0,2.0928,2.0922,2.0939,2.0954,2.0967,2.0979,2.0988,2.0999,2.0985,2.1,2.102,2.1032,2.1053,2.1072,2.1086,2.1088,2.107,2.1068,2.1076,2.1081,2.1083,2.1082,2.0968,2.1066,2.1065,2.1064,2.1064,2.1063,2.0997,2.1018,2.1022,2.1041,2.1046,2.1055,2.1074,2.1071,2.1088,2.1104,2.1094,2.1119,2.1124,2.1141,2.1145,2.1163,2.1148,2.116,2.1163,2.1166,2.117,2.1081,2.1166,2.1166,2.1165,2.1165,2.1165,0,2.1088,2.1089,2.1107,2.112,2.1135,2.1116,2.1125,2.1138,2.116,2.1166,2.118,2.1203,2.1221,2.1218,2.1234,2.1249,2.1241,2.1254,2.1253,2.1253,2.1183,2.1174,2.126,2.126,2.126,2.126,2.126,2.126,2.1137,2.1171,2.1165,2.1201,2.1202,2.1225,2.1232,2.1239,2.1244,2.1271,2.1286,2.1283,2.1285,2.1301,2.1316,2.1315,2.1322,2.1337,2.1333,2.1268,2.1258,2.1249,2.1241,2.1339,2.1339,2.1401,2.1401,2.1402]}]]